LFBALFMN

Guest
Details From LFBA - Agen la Garenne
To LFMN - Nice/Cote d'Azur
Flight Number -
Tags decoded
Created
Modified
Stats Distance 288 nm / 534 km
Max Altitude 0 ft / 0 m
Waypoints 2
Social Downloads 0
Likes 0
Share VATSIM

Download

Looking for another format? Having issues loading an existing format? Contact us
Advertisement - Login to hide

Notes

Requested: LFBA LFMN

Route

LFBA LFMN

ID Type Via Altitude Latitude Longitude Leg Dist Tot Dist Heading (true) Name
O LFBA APT - 0 ft / 0 m 44.17403˚ 0.59296˚ - 0 nm - Agen la Garenne
O LFMN APT - 0 ft / 0 m 43.65798˚ 7.21536˚ 288 nm 288 nm 94° / 98° Nice/Cote d'Azur

Altitude Profile

Advertisement - Login to hide

Weather


0- 5 10 15 20 25 30 35+ Temperature / ° C

Clouds and Precipitation
Forecast for 2018-05-23 06:00 UTC. Updated 17 minutes ago

Ground ~20,000 ft ~40,000 ft Winds

LFBA

Details ICAO LFBA (AGF)
Name Agen la Garenne
Region France
Timezone Europe/Paris (UTC+2.0)
Stats Elevation 204 ft / 62 m (AMSL)
Location 44.174025° 0.592961°
Runways 1
Magnetic Variation 0.395° E

METAR

LFBA 230530Z AUTO 27003KT 9000 SCT001 13/13 Q1017 NOSIG

Decode

TAF

Not found

Departure Runways

ID Width Length Bearing (true) Bearing (mag) Surface Threshold Offset Overrun Length
11 98 ft / 30 m 7,088 ft / 2,161 m 112.24° 111.84° Asphalt 541 ft / 165 m 0 ft / 0 m
29 98 ft / 30 m 7,088 ft / 2,161 m 292.26° 291.86° Asphalt 1,312 ft / 400 m 0 ft / 0 m

LFMN

Details ICAO LFMN (NCE)
Name Nice/Cote d'Azur
Region France
Timezone Unknown (UTC+0.0)
Stats Elevation 12 ft / 4 m (AMSL)
Location 43.657981° 7.215362°
Runways 2
Magnetic Variation 2.065° E

METAR

LFMN 230530Z 32006KT CAVOK 17/14 Q1016 NOSIG

Decode

TAF

TAF LFMN 230200Z 2303/2409 34010KT CAVOK BECMG 2307/2309 18010KT TEMPO 2312/2317 FEW050TCU BECMG 2317/2319 VRB03KT BECMG 2322/2324 06010KT BKN014 PROB40 TEMPO 2400/2406 4000 BR OVC008 BECMG 2407/2409 17010KT SCT020

Decode

Destination Runways

ID Width Length Bearing (true) Bearing (mag) Surface Threshold Offset Overrun Length
04L 148 ft / 45 m 8,427 ft / 2,569 m 44.85° 42.78° Asphalt 0 ft / 0 m 131 ft / 40 m
04R 148 ft / 45 m 9,720 ft / 2,963 m 44.60° 42.53° Asphalt 0 ft / 0 m 427 ft / 130 m
22L 148 ft / 45 m 9,720 ft / 2,963 m 224.62° 222.55° Asphalt 0 ft / 0 m 525 ft / 160 m
22R 148 ft / 45 m 8,427 ft / 2,569 m 224.87° 222.80° Asphalt 0 ft / 0 m 492 ft / 150 m

Approach Navaids

Runway Type Ident Frequency Range Bearing (true) Bearing (mag) Slope Elevation
04L Localiser NI 109.95 MHz 27 nm / 50 km 44.90° 42.83° - 12 ft / 4 m (AMSL)
04L Glidescope NI 109.95 MHz 27 nm / 50 km 44.90° 42.83° 3.00° 12 ft / 4 m (AMSL)
04L DME NI 109.95 MHz 27 nm / 50 km - - - 12 ft / 4 m (AMSL)
04R Localiser NA 110.70 MHz 27 nm / 50 km 42.00° 39.93° - 12 ft / 4 m (AMSL)
04R Glidescope NA 110.70 MHz 27 nm / 50 km 42.00° 39.93° 3.00° 12 ft / 4 m (AMSL)
04R DME NA 110.70 MHz 27 nm / 50 km - - - 12 ft / 4 m (AMSL)

Popular Alternatives